TimeBST,TemperatureF,Dew PointF,Humidity,Sea Level PressureIn,VisibilityMPH,Wind Direction,Wind SpeedMPH,Gust SpeedMPH,PrecipitationIn,Events,Conditions,WindDirDegrees,DateUTC
12:50 AM,66,60,76,30.27,9,ENE,8.1,,,,Haze,60,2013-07-18 23:50:00
12:50 AM,66.2,60.8,83,30.27,-9999.0,ENE,8.1,-,N/A,,Clear,60,2013-07-18 23:50:00
1:50 AM,64.4,60.8,88,30.27,-9999.0,East,11.5,-,N/A,,Clear,90,2013-07-19 00:50:00
2:50 AM,62.6,59.0,88,30.27,-9999.0,East,10.4,-,N/A,,Clear,80,2013-07-19 01:50:00
3:50 AM,61,59,92,30.27,9,East,10.4,,,,Haze,90,2013-07-19 02:50:00
3:50 AM,60.8,59.0,94,30.24,-9999.0,East,10.4,-,N/A,,Clear,90,2013-07-19 02:50:00
4:50 AM,60.8,59.0,94,30.24,-9999.0,East,11.5,-,N/A,,Clear,80,2013-07-19 03:50:00
5:50 AM,60.8,57.2,88,30.24,-9999.0,East,11.5,-,N/A,,Clear,90,2013-07-19 04:50:00
6:50 AM,63,59,81,30.25,9,East,11.5,,,,Haze,80,2013-07-19 05:50:00
6:50 AM,62.6,59.0,88,30.24,-9999.0,East,11.5,-,N/A,,Clear,80,2013-07-19 05:50:00
7:50 AM,66.2,60.8,83,30.24,6.2,East,8.1,-,N/A,,Haze,80,2013-07-19 06:50:00
8:50 AM,68.0,60.8,78,30.24,6.2,East,13.8,-,N/A,,Haze,90,2013-07-19 07:50:00
9:50 AM,70,60,63,30.23,11,East,17.3,,,,Haze,80,2013-07-19 08:50:00
9:50 AM,69.8,60.8,73,30.21,6.2,East,17.3,-,N/A,,Haze,80,2013-07-19 08:50:00
10:50 AM,69.8,59.0,68,30.21,6.2,East,17.3,-,N/A,,Partly Cloudy,100,2013-07-19 09:50:00
11:50 AM,71.6,60.8,69,30.21,-9999.0,East,18.4,-,N/A,,Clear,90,2013-07-19 10:50:00
12:50 PM,72,60,56,30.22,16,East,21.9,,,,Scattered Clouds,90,2013-07-19 11:50:00
12:50 PM,71.6,59.0,64,30.21,-9999.0,East,21.9,-,N/A,,Clear,90,2013-07-19 11:50:00
1:50 PM,73.4,62.6,69,30.21,6.2,East,19.6,-,N/A,,Haze,100,2013-07-19 12:50:00
2:50 PM,73.4,62.6,69,30.21,6.2,East,20.7,-,N/A,,Haze,100,2013-07-19 13:50:00
3:50 PM,72,62,64,30.20,9,East,20.7,,,,Haze,90,2013-07-19 14:50:00
3:50 PM,71.6,62.6,73,30.21,6.2,East,20.7,33.4,N/A,,Haze,90,2013-07-19 14:50:00
4:50 PM,73.4,62.6,69,30.18,6.2,East,23.0,-,N/A,,Unknown,100,2013-07-19 15:50:00
5:50 PM,71.6,62.6,73,0.00,-9999.0,East,23.0,-,N/A,,Unknown,90,2013-07-19 16:50:00
6:50 PM,71,63,68,,9,East,19.6,,,,Haze,90,2013-07-19 17:50:00
6:50 PM,71.6,62.6,73,0.00,-9999.0,East,19.6,-,N/A,,Unknown,90,2013-07-19 17:50:00
7:50 PM,71.6,60.8,69,30.15,6.2,East,18.4,-,N/A,,Unknown,100,2013-07-19 18:50:00
8:50 PM,68.0,60.8,78,30.18,6.2,East,13.8,-,N/A,,Haze,100,2013-07-19 19:50:00
9:50 PM,66,60,76,30.19,9,East,12.7,,,,Haze,80,2013-07-19 20:50:00
9:50 PM,66.2,60.8,83,30.18,6.2,East,12.7,-,N/A,,Haze,80,2013-07-19 20:50:00
10:50 PM,64.4,60.8,88,30.18,6.2,East,10.4,-,N/A,,Haze,80,2013-07-19 21:50:00
11:50 PM,62.6,59.0,88,30.18,-9999.0,East,10.4,-,N/A,,Clear,80,2013-07-19 22:50:00